Change the Weather History Date:

Friday, November 22, 2013

  Actual Average Record
Temperature  
Mean Temperature 22 °F -  
Max Temperature 35 °F 35 °F 55 °F (1998)
Min Temperature 8 °F 20 °F 1 °F (1996)
Degree Days  
Heating Degree Days 44    
Moisture  
Dew Point 8 °F    
Average Humidity 66    
Maximum Humidity 100    
Minimum Humidity 24    
Precipitation  
Precipitation 0.00 in - - ()
Sea Level Pressure  
Sea Level Pressure 30.54 in    
Wind  
Wind Speed 9 mph (WNW)    
Max Wind Speed 22 mph    
Max Gust Speed 31 mph    
Visibility 10 miles    
Events Snow    
Averages and records for this station are not official NWS values.
T = Trace of Precipitation, MM = Missing Value Source: NWS Daily Summary

Daily Weather History Graph

Daily Weather History Graph

Search for Another Location

Airport or City:

Trip Planner

Search our weather history database for the weather conditions in past years. The results will help you decide how hot, cold, wet, or windy it might be!

Date:

Astronomy

Nov. 22, 2013 Rise Set
Actual Time 7:25 AM CST 4:42 PM CST
Civil Twilight 6:53 AM CST 5:14 PM CST
Nautical Twilight 6:16 AM CST 5:51 PM CST
Astronomical Twilight 5:41 AM CST 6:26 PM CST
Moon 9:19 PM CST (11/22) 11:06 AM CST (11/22)
Length of Visible Light 10h 21m
Length of Day
9h 16m
Waning Gibbous, 78% of the Moon is Illuminated
Nov 22
Waning Gibbous
Nov 25
Last Quarter
Dec 2
New
Dec 9
First Quarter
Dec 17
Full

Hourly Weather History & Observations

Time (CST) Temp. Windchill Dew Point Humidity Pressure Visibility Wind Dir Wind Speed Gust Speed Precip Events Conditions
12:13 AM 19.4 °F 7.9 °F 12.2 °F 74% 30.55 in 10.0 mi NW 10.4 mph - N/A   Clear
12:33 AM 19.4 °F 9.5 °F 12.2 °F 74% 30.55 in 10.0 mi NW 8.1 mph - N/A   Clear
12:53 AM 19.4 °F 9.5 °F 12.2 °F 74% 30.55 in 10.0 mi NW 8.1 mph - N/A   Clear
1:13 AM 17.6 °F 7.3 °F 10.4 °F 73% 30.55 in 10.0 mi NW 8.1 mph - N/A   Clear
1:33 AM 17.6 °F 6.4 °F 10.4 °F 73% 3.05 in 10.0 mi NW 9.2 mph - N/A   Clear
1:53 AM 17.6 °F 5.7 °F 10.4 °F 73% 30.56 in 10.0 mi NW 10.4 mph - N/A   Clear
2:13 AM 17.6 °F 8.2 °F 10.4 °F 73% 30.56 in 10.0 mi NW 6.9 mph - N/A   Clear
2:33 AM 15.8 °F 4.2 °F 10.4 °F 79% 30.56 in 10.0 mi NW 9.2 mph - N/A   Clear
2:53 AM 15.8 °F 3.4 °F 10.4 °F 79% 30.56 in 10.0 mi NW 10.4 mph - N/A   Clear
3:12 AM 15.8 °F 5.1 °F 10.4 °F 79% 30.55 in 10.0 mi NW 8.1 mph - N/A   Clear
3:33 AM 15.8 °F 5.1 °F 10.4 °F 79% 30.55 in 10.0 mi NW 8.1 mph - N/A   Clear
3:52 AM 14.0 °F 2.0 °F 10.4 °F 86% 30.55 in 10.0 mi NW 9.2 mph - N/A   Clear
4:13 AM 14.0 °F 3.9 °F 10.4 °F 86% 30.55 in 10.0 mi WNW 6.9 mph - N/A   Clear
4:33 AM 14.0 °F 2.9 °F 10.4 °F 86% 30.55 in 10.0 mi WNW 8.1 mph - N/A   Clear
4:52 AM 12.2 °F 2.9 °F 10.4 °F 92% 30.55 in 10.0 mi WNW 5.8 mph - N/A   Clear
5:13 AM 12.2 °F 6.1 °F 10.4 °F 92% 30.55 in 10.0 mi WNW 3.5 mph - N/A   Clear
5:33 AM 12.2 °F 6.1 °F 12.2 °F 100% 30.55 in 10.0 mi West 3.5 mph - N/A   Clear
5:52 AM 12.2 °F 1.7 °F 12.2 °F 100% 30.56 in 10.0 mi West 6.9 mph - N/A   Clear
6:13 AM 12.2 °F 1.7 °F 12.2 °F 100% 30.57 in 10.0 mi West 6.9 mph - N/A   Clear
6:33 AM 10.4 °F 2.2 °F 10.4 °F 100% 30.56 in 10.0 mi West 4.6 mph - N/A   Clear
6:52 AM 10.4 °F 4.0 °F 10.4 °F 100% 30.54 in 10.0 mi WNW 3.5 mph - N/A   Clear
7:13 AM 10.4 °F -2.4 °F 10.4 °F 100% 30.56 in 10.0 mi WNW 9.2 mph - N/A   Clear
7:32 AM 10.4 °F 2.2 °F 8.6 °F 92% 30.57 in 10.0 mi West 4.6 mph - N/A   Clear
7:53 AM 10.4 °F - 8.6 °F 92% 30.56 in 10.0 mi Calm Calm - N/A   Clear
8:12 AM 10.4 °F 2.2 °F 8.6 °F 92% 30.56 in 10.0 mi WSW 4.6 mph - N/A   Clear
8:33 AM 12.2 °F - 8.6 °F 85% 30.56 in 10.0 mi Calm Calm - N/A   Clear
8:53 AM 14.0 °F 8.2 °F 8.6 °F 79% 30.56 in 10.0 mi SW 3.5 mph - N/A   Clear
9:12 AM 15.8 °F - 6.8 °F 68% 30.55 in 10.0 mi Calm Calm - N/A   Clear
9:33 AM 17.6 °F 10.7 °F 8.6 °F 68% 30.54 in 10.0 mi WSW 4.6 mph - N/A   Clear
9:53 AM 19.4 °F 12.8 °F 6.8 °F 58% 30.54 in 10.0 mi WSW 4.6 mph - N/A   Clear
10:12 AM 19.4 °F 11.5 °F 8.6 °F 63% 30.53 in 10.0 mi SW 5.8 mph - N/A   Clear
10:33 AM 21.2 °F 14.9 °F 8.6 °F 58% 30.52 in 10.0 mi SSW 4.6 mph - N/A   Clear
10:53 AM 24.8 °F 16.9 °F 8.6 °F 50% 30.51 in 10.0 mi SW 6.9 mph - N/A   Clear
11:12 AM 26.6 °F 18.2 °F 8.6 °F 47% 30.50 in 10.0 mi SW 8.1 mph - N/A   Clear
11:33 AM 28.4 °F 19.7 °F 6.8 °F 40% 30.49 in 10.0 mi SW 9.2 mph 19.6 mph N/A   Clear
11:53 AM 28.4 °F 20.4 °F 8.6 °F 43% 30.49 in 10.0 mi WSW 8.1 mph - N/A   Clear
12:12 PM 30.2 °F 22.6 °F 6.8 °F 37% 30.49 in 10.0 mi WSW 8.1 mph 18.4 mph N/A   Clear
12:33 PM 30.2 °F 21.9 °F 5.0 °F 34% 30.47 in 10.0 mi WSW 9.2 mph 17.3 mph N/A   Clear
12:53 PM 33.8 °F 26.4 °F 5.0 °F 30% 30.47 in 10.0 mi WSW 9.2 mph 17.3 mph N/A   Clear
1:12 PM 33.8 °F 24.8 °F 3.2 °F 28% 30.47 in 10.0 mi West 12.7 mph 19.6 mph N/A   Clear
1:33 PM 35.6 °F 27.5 °F 6.8 °F 30% 30.46 in 10.0 mi West 11.5 mph 19.6 mph N/A   Clear
1:53 PM 35.6 °F 25.9 °F 1.4 °F 24% 30.46 in 10.0 mi West 16.1 mph 27.6 mph N/A   Clear
2:12 PM 35.6 °F 27.1 °F 3.2 °F 26% 30.45 in 10.0 mi West 12.7 mph 19.6 mph N/A   Clear
2:33 PM 35.6 °F 27.1 °F 3.2 °F 26% 30.45 in 10.0 mi West 12.7 mph 19.6 mph N/A   Clear
2:52 PM 33.8 °F 25.8 °F 6.8 °F 32% 30.45 in 10.0 mi WNW 10.4 mph 20.7 mph N/A   Clear
3:13 PM 33.8 °F 24.8 °F 6.8 °F 32% 30.45 in 10.0 mi WNW 12.7 mph 19.6 mph N/A   Clear
3:33 PM 30.2 °F 18.5 °F 10.4 °F 44% 30.46 in 10.0 mi WNW 17.3 mph 23.0 mph N/A   Clear
3:52 PM 30.2 °F 19.3 °F 10.4 °F 44% 30.47 in 10.0 mi WNW 15.0 mph 20.7 mph N/A   Clear
4:13 PM 28.4 °F 18.0 °F 10.4 °F 47% 30.48 in 10.0 mi NW 12.7 mph 19.6 mph N/A   Clear
4:33 PM 26.6 °F 15.7 °F 10.4 °F 51% 30.49 in 10.0 mi NW 12.7 mph 20.7 mph N/A   Clear
4:52 PM 24.8 °F 12.9 °F 12.2 °F 59% 30.50 in 10.0 mi NW 13.8 mph 23.0 mph N/A   Clear
5:13 PM 24.8 °F 13.4 °F 12.2 °F 59% 30.50 in 10.0 mi NW 12.7 mph 19.6 mph N/A   Scattered Clouds
5:33 PM 24.8 °F 14.6 °F 12.2 °F 59% 30.51 in 10.0 mi NW 10.4 mph 18.4 mph N/A   Mostly Cloudy
5:52 PM 24.8 °F 12.4 °F 14.0 °F 64% 30.51 in 10.0 mi NNW 15.0 mph 20.7 mph N/A   Mostly Cloudy
6:13 PM 24.8 °F 12.9 °F 17.6 °F 74% 30.52 in 5.0 mi NW 13.8 mph 21.9 mph N/A Snow Light Snow
6:33 PM 21.2 °F 9.5 °F 15.8 °F 80% 30.53 in 10.0 mi NNW 11.5 mph 24.2 mph N/A   Overcast
6:52 PM 21.2 °F 8.3 °F 12.2 °F 68% 30.54 in 10.0 mi NW 13.8 mph 23.0 mph N/A   Mostly Cloudy
7:13 PM 21.2 °F 8.9 °F 12.2 °F 68% 30.55 in 10.0 mi NW 12.7 mph - N/A   Clear
7:33 PM 19.4 °F 5.5 °F 10.4 °F 68% 30.56 in 10.0 mi NW 15.0 mph 24.2 mph N/A   Clear
7:52 PM 19.4 °F 4.5 °F 10.4 °F 68% 30.57 in 10.0 mi NW 17.3 mph 24.2 mph N/A   Mostly Cloudy
8:13 PM 17.6 °F 0.5 °F 5.0 °F 58% 30.58 in 10.0 mi NW 21.9 mph 26.5 mph N/A   Mostly Cloudy
8:33 PM 15.8 °F 0.3 °F 1.4 °F 53% 30.59 in 10.0 mi NW 16.1 mph 23.0 mph N/A   Scattered Clouds
8:52 PM 14.0 °F -3.4 °F 1.4 °F 57% 30.59 in 10.0 mi NNW 19.6 mph 26.5 mph N/A   Clear
9:13 PM 14.0 °F -3.0 °F 1.4 °F 57% 30.60 in 10.0 mi NNW 18.4 mph 31.1 mph N/A   Clear
9:33 PM 12.2 °F -4.8 °F 1.4 °F 62% 30.61 in 10.0 mi NNW 17.3 mph 24.2 mph N/A   Clear
9:52 PM 12.2 °F -1.0 °F 1.4 °F 62% 30.62 in 10.0 mi NW 10.4 mph 19.6 mph N/A   Clear
10:13 PM 10.4 °F -1.5 °F 1.4 °F 67% 30.63 in 10.0 mi NW 8.1 mph 19.6 mph N/A   Clear
10:33 PM 10.4 °F -5.4 °F 1.4 °F 67% 30.63 in 10.0 mi NW 13.8 mph 23.0 mph N/A   Clear
10:52 PM 10.4 °F -8.2 °F 1.4 °F 67% 30.64 in 10.0 mi NNW 19.6 mph 26.5 mph N/A   Clear
11:13 PM 8.6 °F -8.3 °F 1.4 °F 73% 30.66 in 10.0 mi NNW 15.0 mph 21.9 mph N/A   Clear
11:33 PM 8.6 °F -8.9 °F 1.4 °F 73% 30.66 in 10.0 mi NNW 16.1 mph - N/A   Clear
11:53 PM 8.6 °F -7.7 °F 1.4 °F 73% 30.67 in 10.0 mi NW 13.8 mph - N/A   Clear